Flag for U.S.A. Weather past 2 weeks in Clearwater, Florida, U.S.A.

Now
78 °F

Fog.


Feels Like: 81 °F
Forecast: 72 / 85 °F
Wind: 9 mph from South

Location: St. Petersburg / Clearwater International Airport

Current Time: Apr 18, 2015 at 9:19:21 AM

Latest Report: Apr 18, 2015 at 8:53 AM


Visibility: 6 mi

Pressure: 29.97 "Hg

Humidity: 90%

Dew point: 75 °F

Location of ClearwaterLocation

Historic Weather in Clearwater — Graph

°F

Clearwater temperature yesterday

Maximum temperature yesterday: 83 °F (at 12:00 PM)
Minimum temperature yesterday: 72 °F (at 6:53 AM)
Average temperature yesterday: 78 °F

Past Weeks' High & Low Weather Summary

 TemperatureHumidityPressure
High88 °F (Apr 12, 2:53 PM)97% (Apr 3, 7:53 AM)30.19 "Hg (Apr 3, 7:53 AM)
Low65 °F (Apr 3, 7:53 AM)41% (Apr 4, 2:53 PM)29.95 "Hg (Apr 18, 4:53 AM)
Average77 °F76%30.09 "Hg
* Reported Apr 3 7:53 AM — Apr 18 7:53 AM, Clearwater, Weather by CustomWeather, © 2015

Note: Actual official high and low records may vary slightly from our data, if they occured in-between our weather recording intervals... More about our weather records

Advertising

Clearwater weather history for previous 24 hours

 ConditionsComfort  
Time TempWeatherWind HumidityBarometerVisibility
7:53 AM
Sat, Apr 18
75 °FClear.5 mph94%29.96 "Hg7 mi
6:53 AM72 °FClear.7 mph97%29.95 "Hg8 mi
5:53 AM71 °FFog.5 mph96%29.96 "Hg7 mi
4:53 AM71 °FClear.3 mph96%29.95 "Hg7 mi
3:53 AM73 °FClear.No wind94%29.96 "Hg9 mi
2:53 AM73 °FClear.No wind94%29.97 "Hg10 mi
1:53 AM74 °FMostly cloudy.No wind94%30.00 "Hg10 mi
12:53 AM74 °FPassing clouds.No wind91%30.01 "Hg10 mi
11:53 PM
Fri, Apr 17
74 °FClear.No wind91%30.01 "Hg10 mi
10:53 PM75 °FClear.3 mph88%30.01 "Hg10 mi
9:53 PM77 °FClear.5 mph85%29.99 "Hg10 mi
8:53 PM77 °FSunny.6 mph82%29.98 "Hg10 mi
7:53 PM79 °FSunny.7 mph77%29.98 "Hg10 mi
6:53 PM81 °FSunny.8 mph72%29.97 "Hg10 mi
5:53 PM82 °FSunny.9 mph67%29.98 "Hg10 mi
4:53 PM82 °FSunny.14 mph70%29.98 "Hg10 mi
3:53 PM83 °FScattered clouds.8 mph65%29.98 "Hg10 mi
2:53 PM83 °FScattered clouds.9 mph65%30.02 "Hg10 mi
1:53 PM82 °FPartly sunny.12 mph67%30.03 "Hg10 mi
12:53 PM82 °FPartly sunny.9 mph70%30.05 "Hg10 mi
12:00 PM83 °FPassing clouds.10 mph63%30.07 "Hg10 mi
10:53 AM80 °FPartly sunny.5 mph74%30.08 "Hg10 mi
9:53 AM77 °FPartly sunny.3 mph82%30.08 "Hg10 mi
Weather by CustomWeather, © 2015

See weather overviewHow to use our weather pages